Pombo Tres — EAMR — position and weather

sailwx.info

Track history (hours):
 
Tides and Currents Weather Stations Pressure Air Temp Water Temp Dewpoint Dewpoint Depression Visibility Wind Speed Wind Dir Waves Ship Positions

Pombo Tres

Last reported at 2017-Mar-27 21:11 UTC. Time now 2017-Dec-12 17:43 UTC.
Position N 43°49' W 007°39'.
Warning: this ship's position is months out of date.

Length 31 m; draft 4 m.

Type: Fishing. MMSI: 224013090.

Date/timePositionNaut miles runAvg speedWind from/ knotsBaromVisibWave heightAir tempDewpointWater temp
2017-Mar-27 21:11N 43°49' W 007°39'5 8.0
2017-Mar-27 20:33N 43°45' W 007°36'4 4.1
2017-Mar-27 19:33N 43°41' W 007°36'0 0.0
2017-Mar-27 18:33N 43°41' W 007°36'0 0.2
2017-Mar-27 17:33N 43°41' W 007°36'0 0.0
2017-Mar-27 16:33N 43°41' W 007°36'1 0.7
2017-Mar-27 15:33N 43°41' W 007°36'8 0.7
2017-Mar-27 03:08N 43°50' W 007°36'5 8.0
2017-Mar-27 02:33N 43°45' W 007°36'4 4.3
2017-Mar-27 01:33N 43°41' W 007°36'0 0.0
2017-Mar-27 00:33N 43°41' W 007°36'  
2017-Mar-24 16:32N 43°41' W 007°36'0 0.2
2017-Mar-24 15:34N 43°41' W 007°36'7 6.8
2017-Mar-24 14:33N 43°47' W 007°36'  
2017-Mar-20 23:16N 43°52' W 007°40'1 0.9
2017-Mar-20 22:30N 43°51' W 007°40'4 4.2
2017-Mar-20 21:33N 43°48' W 007°37'7 7.1
2017-Mar-20 20:33N 43°41' W 007°36'4 3.7
2017-Mar-20 19:33N 43°44' W 007°35'5 0.3
2017-Mar-20 03:33N 43°49' W 007°38'8 8.2
2017-Mar-20 02:33N 43°41' W 007°36'0 0.0
2017-Mar-20 01:33N 43°41' W 007°36'  
Track history (hours):
 
Tides and Currents Weather Stations Pressure Air Temp Water Temp Dewpoint Dewpoint Depression Visibility Wind Speed Wind Dir Waves Ship Positions

Pombo Tres

Last reported at 2017-Mar-27 21:11 UTC. Time now 2017-Dec-12 17:43 UTC.
Position N 43°49' W 007°39'.
Warning: this ship's position is months out of date.

Length 31 m; draft 4 m.

Type: Fishing. MMSI: 224013090.

Date/timePositionNaut miles runAvg speedWind from/ knotsBaromVisibWave heightAir tempDewpointWater temp
2017-Mar-27 21:11N 43°49' W 007°39'5 8.0
2017-Mar-27 20:33N 43°45' W 007°36'4 4.1
2017-Mar-27 19:33N 43°41' W 007°36'0 0.0
2017-Mar-27 18:33N 43°41' W 007°36'0 0.2
2017-Mar-27 17:33N 43°41' W 007°36'0 0.0
2017-Mar-27 16:33N 43°41' W 007°36'1 0.7
2017-Mar-27 15:33N 43°41' W 007°36'8 0.7
2017-Mar-27 03:08N 43°50' W 007°36'5 8.0
2017-Mar-27 02:33N 43°45' W 007°36'4 4.3
2017-Mar-27 01:33N 43°41' W 007°36'0 0.0
2017-Mar-27 00:33N 43°41' W 007°36'  
2017-Mar-24 16:32N 43°41' W 007°36'0 0.2
2017-Mar-24 15:34N 43°41' W 007°36'7 6.8
2017-Mar-24 14:33N 43°47' W 007°36'  
2017-Mar-20 23:16N 43°52' W 007°40'1 0.9
2017-Mar-20 22:30N 43°51' W 007°40'4 4.2
2017-Mar-20 21:33N 43°48' W 007°37'7 7.1
2017-Mar-20 20:33N 43°41' W 007°36'4 3.7
2017-Mar-20 19:33N 43°44' W 007°35'5 0.3
2017-Mar-20 03:33N 43°49' W 007°38'8 8.2
2017-Mar-20 02:33N 43°41' W 007°36'0 0.0
2017-Mar-20 01:33N 43°41' W 007°36'  

Dump ship's entire track history